ORBCOMM FM04

Last updated on Wed Aug 19 2026 00:03:10 GMT+0000 (Coordinated Universal Time)

1 25159U 98007C 26230.12370167 .00000550 00000+0 23336-3 0 9995 2 25159 107.9618 296.8995 0041804 219.5234 140.2855 14.35825635485483
UTC large
Height (km)
Speed (km/s)
/
Latitude / Longitude
Inclination (degrees)
Orbital Period (minutes)
Azimuth
Elevation
Range (km)
Doppler Factor

Next 0 passes for location: London (51.5072 / 0.1276)

No passes found over London.
ORBCOMM FM04